This is the latest recevied weather packets stored in our database for station/object PU5FJO-13. If no packets are shown the sender has not sent any weather packets the latest 10 day(s).
| Time | Temp. | Humidity | Pressure | Rain* | Wind** | Luminosity | Snow |
|---|---|---|---|---|---|---|---|
| 1777512968 | 18.33° C | 80% | 1016.8 hPa | - | - | - | - |
| 1777512368 | 18.89° C | 78% | 1016.9 hPa | - | - | - | - |
| 1777511768 | 18.89° C | 77% | 1016.8 hPa | - | - | - | - |
| 1777511168 | 18.89° C | 78% | 1016.8 hPa | - | - | - | - |
| 1777510568 | 18.89° C | 78% | 1016.8 hPa | - | - | - | - |
| 1777509968 | 18.89° C | 78% | 1016.4 hPa | - | - | - | - |
| 1777509368 | 18.89° C | 77% | 1016.3 hPa | - | - | - | - |
| 1777508768 | 18.89° C | 78% | 1016.2 hPa | - | - | - | - |
| 1777508168 | 18.89° C | 78% | 1016.1 hPa | - | - | - | - |
| 1777507568 | 18.89° C | 78% | 1016.1 hPa | - | - | - | - |
| 1777506968 | 19.44° C | 75% | 1016.2 hPa | - | - | - | - |
| 1777506368 | 18.89° C | 76% | 1016.2 hPa | - | - | - | - |
| 1777505768 | 18.89° C | 76% | 1016.5 hPa | - | - | - | - |
| 1777505168 | 18.89° C | 79% | 1016.5 hPa | - | - | - | - |
| 1777504567 | 18.89° C | 79% | 1016.4 hPa | - | - | - | - |
| 1777503967 | 18.89° C | 79% | 1016.3 hPa | - | - | - | - |
| 1777503368 | 18.89° C | 79% | 1016 hPa | - | - | - | - |
| 1777502768 | 18.89° C | 78% | 1015.7 hPa | - | - | - | - |
| 1777502169 | 18.89° C | 78% | 1015.7 hPa | - | - | - | - |
| 1777501567 | 18.89° C | 78% | 1015.6 hPa | - | - | - | - |
| 1777500967 | 18.89° C | 80% | 1015.5 hPa | - | - | - | - |
| 1777500368 | 18.89° C | 79% | 1015.4 hPa | - | - | - | - |
| 1777499768 | 19.44° C | 78% | 1015.3 hPa | - | - | - | - |
| 1777499167 | 18.89° C | 79% | 1015.2 hPa | - | - | - | - |
| 1777498567 | 19.44° C | 80% | 1015.2 hPa | - | - | - | - |
* Rain since midnight (hover to see other rain measurements)
** Current wind speed in m/s (hover to see current wind gust speed)